Temperature
18 18 17 17 17 17 17 17 16 16 16 16 16 16 16 16 16 15 15 15 15 15 15 15 15 15 15 15 15 15 15 15 15 15 14 14 14 14 14 14 14 14 14
18 18 18 17 17 17 17 16 16 16 16 16 16 16 16 16 15 15 15 15 15 15 15 15 15 15 15 15 15 15 15 15 14 14 14 14 13 13 13 13 13 13 13
18 18 18 18 17 17 17 17 16 16 16 16 16 16 16 15 15 15 15 15 15 15 15 15 15 15 15 15 15 15 15 15 15 14 14 14 13 13 13 13 13 13 13
18 18 18 18 18 17 17 17 16 16 16 16 16 16 16 15 15 15 15 15 15 15 15 15 15 15 15 15 15 15 15 15 15 14 14 14 14 14 13 13 13 13 13
18 18 18 18 18 17 17 17 16 16 16 16 16 16 16 15 15 15 15 15 15 15 15 15 15 15 15 15 15 15 15 15 15 14 14 14 14 14 13 13 12 13 12
18 18 18 18 18 17 17 17 16 16 16 16 16 16 16 15 15 15 15 15 15 15 15 15 15 15 15 15 15 15 15 14 14 14 14 14 14 14 14 13 13 12 12
18 18 18 18 18 17 17 17 17 16 16 16 16 16 16 15 15 15 15 15 15 15 15 15 15 15 15 15 14 14 14 14 14 14 14 14 14 14 14 14 13 12 12
18 18 18 18 18 17 17 17 17 16 16 16 16 16 16 15 15 15 15 15 15 15 15 15 14 14 14 14 14 14 14 14 14 14 14 14 14 14 14 14 13 13 12
18 18 18 18 18 18 17 17 17 16 16 16 16 16 15 15 15 15 15 15 15 15 15 14 14 14 14 14 14 14 14 14 14 14 14 14 13 13 13 13 13 13 12
18 18 18 18 18 18 17 17 17 17 16 16 16 16 16 15 15 15 15 15 15 15 15 14 14 14 14 14 14 14 14 14 13 13 13 13 13 13 13 13 13 13 13
18 18 18 18 18 18 17 17 17 17 16 16 16 16 16 15 15 15 15 15 15 15 14 14 14 14 14 14 14 14 13 13 13 13 13 13 13 13 13 13 12 12 12
19 19 18 18 18 18 17 17 17 17 16 16 16 16 16 15 15 15 15 15 15 15 14 14 14 14 14 14 13 13 13 13 13 13 13 13 13 12 12 12 12 12 12
19 18 18 18 18 17 17 17 17 16 16 16 16 16 16 15 15 15 15 15 15 14 14 14 14 14 14 13 13 13 13 13 13 13 13 12 12 12 12 12 12 12 11
19 18 18 18 18 18 17 17 17 16 16 16 16 16 16 16 15 15 15 15 14 14 14 14 14 14 13 13 13 13 13 13 13 12 12 12 12 12 12 12 11 11 11
18 18 18 18 18 18 17 17 17 16 16 16 16 16 16 15 15 15 15 15 14 14 14 14 14 13 13 13 13 13 13 13 12 12 12 12 12 12 11 11 11 11 11
18 18 18 18 18 18 17 17 17 16 16 16 16 16 15 15 15 15 15 14 14 14 14 14 14 13 13 13 13 13 12 12 12 12 12 12 11 11 11 11 11 10 10
19 18 18 18 18 18 18 17 17 16 16 16 16 16 15 15 15 15 14 14 14 14 14 14 13 13 13 13 12 12 12 12 12 12 12 12 11 11 11 11 10 10 10
19 19 18 18 18 18 17 17 17 16 16 16 16 15 15 15 15 14 14 14 14 14 14 13 13 13 13 12 12 12 12 12 12 11 11 11 11 11 11 10 10 10 10
19 19 19 18 18 18 17 17 16 16 16 16 16 15 15 15 15 14 14 14 14 14 13 13 13 13 13 12 12 12 12 11 11 11 11 11 11 11 10 10 10 10 10
19 19 18 18 18 17 17 17 16 16 16 16 16 15 15 15 15 14 14 14 14 13 13 13 13 13 12 12 12 12 11 11 11 11 11 11 10 10 10 10 10 9 9
18 18 18 17 17 17 17 16 16 16 16 16 16 15 15 15 14 14 14 14 13 13 13 13 13 12 12 12 12 12 11 11 11 11 11 10 10 10 10 9 9 9 9
18 18 17 17 17 17 16 16 16 16 16 15 15 15 15 14 14 14 13 13 13 13 13 12 12 12 12 12 12 11 11 11 11 11 11 10 10 10 9 9 9 8 8
18 17 17 17 17 16 16 16 16 16 16 15 15 15 14 14 14 14 13 13 13 12 12 12 12 12 12 12 11 11 11 11 10 10 10 10 9 9 9 9 8 8 8
17 17 17 17 16 16 16 16 16 16 15 15 15 14 14 14 14 13 13 13 13 12 12 12 12 12 12 12 11 11 11 10 10 10 10 9 9 9 8 8 8 8 7
17 17 17 16 16 16 16 16 15 15 15 15 14 14 14 14 13 13 13 13 13 12 12 12 12 12 12 11 11 11 11 10 10 10 9 9 9 9 8 8 8 7 7
17 17 16 16 16 16 16 15 15 15 15 14 14 14 14 13 13 13 13 12 12 12 12 12 12 11 11 11 11 10 10 10 9 9 9 9 8 8 8 8 7 7 7
Wind_Speed
5 4 5 6 6 5 5 5 5 4 4 3 3 3 2 2 3 5 6 7 7 7 7 5 5 5 4 4 4 4 6 4 3 5 5 5 6 8 7 7 8 9 11
5 5 6 7 7 7 6 5 5 5 4 3 3 3 3 2 2 3 6 7 7 6 6 5 4 4 4 5 4 4 3 3 3 3 3 3 5 5 7 6 7 7 9
9 8 8 8 8 8 8 7 5 5 4 4 4 4 4 3 3 3 3 5 6 7 7 6 5 4 4 3 3 3 4 3 3 3 3 3 1 1 4 6 6 7 7
8 8 9 9 9 9 7 6 5 5 5 5 5 5 4 3 1 1 2 4 6 7 7 6 6 5 4 4 3 3 3 3 2 3 4 3 3 3 1 3 4 6 7
9 10 10 10 8 7 7 6 5 5 5 5 6 6 4 3 2 2 4 3 4 6 7 7 6 5 4 4 4 4 4 3 3 2 2 3 4 3 3 1 3 4 4
9 8 8 7 7 6 6 6 6 5 5 5 6 7 7 5 5 4 3 2 2 3 5 6 6 5 4 4 4 4 4 3 4 3 3 2 2 2 2 2 1 2 3
9 9 9 9 9 9 8 7 7 6 5 6 6 7 7 7 6 5 4 3 2 1 2 3 4 4 4 5 5 5 4 4 4 3 2 2 2 2 3 3 2 2 2
9 10 11 11 10 10 9 8 8 6 6 6 6 5 6 5 4 4 4 4 2 2 2 4 4 5 5 6 6 4 4 4 4 4 4 3 3 2 2 3 3 2 3
10 10 10 10 11 11 10 9 9 7 7 7 6 6 6 5 5 4 4 3 3 3 4 5 4 5 5 6 5 4 4 4 4 4 4 3 3 3 2 2 3 4 2
9 9 10 10 10 10 8 8 8 8 7 7 6 6 5 5 5 5 5 4 3 4 5 4 4 4 5 5 5 4 3 5 4 3 4 4 2 3 3 3 3 3 4
10 10 9 9 8 8 8 8 8 6 6 6 5 6 5 5 5 5 5 4 4 4 4 4 4 4 4 4 5 4 4 5 4 3 4 3 3 3 3 3 3 3 3
9 9 9 8 8 9 8 8 8 7 7 7 6 6 5 5 5 5 4 4 5 4 4 5 5 4 4 4 5 4 4 4 3 3 4 3 3 4 3 3 3 3 2
6 7 8 9 9 9 9 9 8 7 6 7 7 6 6 6 6 5 5 5 5 4 4 5 5 4 4 4 4 5 4 3 3 3 3 2 4 3 3 3 3 2 3
7 8 8 9 9 9 9 9 8 8 7 7 7 7 7 7 6 5 5 5 5 5 5 4 4 5 5 4 4 5 4 4 3 2 2 2 3 3 3 3 3 3 4
7 9 9 9 9 9 8 8 8 8 8 8 7 7 6 5 5 5 5 5 5 5 5 5 4 4 4 4 5 5 5 4 3 3 2 2 4 4 4 3 3 4 3
9 10 10 9 10 10 10 9 9 8 8 9 8 6 6 6 6 5 5 5 5 5 5 5 5 4 3 6 8 7 5 4 4 3 2 3 3 4 5 5 5 5 4
9 10 10 10 11 11 10 11 10 9 9 8 8 7 7 7 6 6 6 6 5 5 5 5 5 4 4 7 8 8 5 4 4 3 2 2 3 4 4 4 5 4 3
8 9 9 9 8 8 8 8 8 9 9 8 8 8 8 7 6 6 6 5 5 5 4 4 4 4 4 7 8 8 6 4 3 3 3 3 2 3 4 4 3 2 2
7 8 9 8 9 10 10 9 9 9 8 8 9 9 9 9 8 7 6 5 5 5 4 4 5 5 4 6 8 8 5 4 3 2 3 3 3 4 5 4 3 1 1
4 5 6 6 8 8 9 10 10 10 10 10 9 9 9 9 9 8 6 4 5 5 5 4 4 5 4 6 8 8 4 3 2 1 2 3 4 4 5 4 4 2 1
3 5 7 7 7 8 10 10 10 10 10 8 8 8 8 9 8 7 5 6 5 5 4 4 2 3 3 5 7 8 5 5 4 2 2 2 4 5 5 4 3 3 2
4 6 7 6 6 8 10 10 9 8 7 8 9 8 8 8 8 8 7 6 7 6 4 3 2 1 1 3 5 7 7 6 4 3 3 2 5 5 4 3 3 2 2
5 5 7 7 6 7 9 9 7 7 8 9 9 8 7 6 7 8 8 7 6 5 4 4 3 2 1 2 5 6 6 7 4 3 4 4 4 3 2 2 2 2 1
5 6 7 7 6 6 6 7 7 8 9 9 8 7 8 6 6 6 6 7 6 6 5 5 4 3 2 2 2 2 3 5 3 2 3 4 3 2 1 1 1 1 1
4 6 7 7 7 6 6 6 7 9 9 8 7 7 7 7 6 5 4 6 6 8 8 6 6 6 5 6 8 6 4 4 4 4 2 2 1 1 0 0 0 0 0
4 5 5 6 6 6 6 6 8 9 10 8 7 6 6 6 6 5 3 1 3 6 7 7 7 5 6 7 9 9 8 8 8 5 2 2 2 2 2 2 2 1 2
Wind_Direction
207 189 173 159 149 145 142 144 138 136 125 106 101 94 77 44 42 45 54 65 72 76 76 74 64 66 77 80 83 84 77 63 64 81 62 41 42 46 37 36 42 42 44
193 188 175 169 168 166 163 158 153 149 142 128 124 118 114 87 65 47 52 55 66 73 79 78 77 72 81 75 74 84 87 60 40 90 90 47 17 21 28 31 38 34 39
198 195 189 185 174 175 178 175 169 158 149 135 113 90 70 58 46 38 39 38 62 72 77 82 81 75 83 91 82 91 105 104 44 53 114 122 155 7 6 24 32 29 34
199 193 191 189 187 187 178 170 167 161 156 146 138 135 133 130 144 106 72 53 62 68 73 79 80 77 77 83 81 78 88 109 93 52 50 89 136 128 44 360 13 26 34
198 196 196 194 190 182 173 169 163 161 161 156 151 141 134 137 119 91 83 66 54 60 68 75 76 74 72 75 74 76 76 87 105 98 82 71 64 79 121 79 353 11 16
198 195 190 179 181 176 169 167 163 167 163 158 155 154 153 148 130 117 108 86 60 49 58 75 78 78 74 72 75 79 82 81 87 87 88 106 106 113 117 131 83 12 349
190 186 181 179 181 180 179 174 168 173 172 162 163 165 164 159 156 153 147 133 106 75 60 77 82 81 81 81 80 76 73 77 84 86 83 87 95 127 126 124 122 60 354
190 190 189 185 185 184 180 174 174 177 176 170 171 167 164 161 163 162 155 150 150 150 122 107 96 90 90 87 82 73 68 72 78 77 77 76 66 88 115 134 133 92 24
192 192 188 185 185 184 184 178 176 180 181 175 169 167 167 164 163 160 150 147 145 133 117 112 102 93 91 91 89 78 69 73 71 73 75 72 55 62 74 102 125 133 115
193 191 188 188 186 183 177 170 174 182 179 172 172 170 171 171 163 153 151 151 142 123 122 116 108 100 94 95 92 82 74 79 66 71 78 69 56 60 65 79 80 102 135
194 193 192 186 178 171 170 172 177 175 171 171 165 158 164 159 152 155 160 157 144 137 135 132 124 116 108 103 102 96 90 86 72 68 82 74 69 72 64 70 77 78 103
195 191 183 171 170 172 173 175 179 180 177 170 162 161 158 153 153 160 164 152 147 141 136 130 127 126 119 115 117 117 107 106 100 87 84 74 82 76 69 79 81 81 89
186 179 174 174 177 179 178 178 181 183 172 162 159 157 159 161 165 168 163 154 150 143 133 134 136 135 133 127 125 122 115 113 113 109 111 108 100 89 79 81 82 76 77
186 180 181 182 181 181 179 178 181 177 167 159 159 165 172 173 169 162 155 155 154 151 147 143 140 138 134 133 130 125 120 115 104 98 109 114 123 126 116 99 96 96 87
190 187 187 186 180 179 178 175 176 173 167 163 166 175 168 159 153 151 149 147 149 153 147 138 133 132 137 147 146 141 137 131 112 85 82 102 114 118 119 118 126 118 108
200 193 189 185 184 183 180 174 173 172 167 169 173 166 155 152 152 152 148 144 144 141 138 141 144 149 159 157 157 150 140 135 130 118 85 77 77 88 99 108 117 127 131
204 193 190 191 190 187 181 178 176 165 165 168 165 162 161 157 157 154 147 152 152 143 141 147 148 155 163 159 156 155 141 139 140 138 125 109 97 91 90 86 83 82 109
203 196 189 189 188 178 174 167 160 161 165 165 163 163 162 158 152 149 154 154 146 148 151 153 156 154 168 162 153 148 138 134 137 147 153 146 139 126 123 110 85 66 59
202 196 187 183 176 173 170 158 159 162 165 170 171 170 164 157 155 160 161 154 149 152 155 156 160 163 177 169 159 146 138 139 152 165 153 158 168 154 135 122 115 60 345
187 176 161 155 165 171 161 159 166 169 179 182 177 169 164 162 166 168 161 153 153 157 149 149 163 168 178 173 166 155 147 152 166 168 170 176 178 169 152 148 151 166 263
161 147 147 159 170 164 161 166 172 185 187 172 161 158 162 164 164 158 153 148 147 139 139 143 152 171 182 181 175 170 167 174 174 181 202 209 186 177 169 160 171 192 184
140 145 151 158 159 159 162 169 184 185 163 154 154 157 159 162 159 152 154 150 145 141 143 142 142 182 195 179 181 179 178 172 170 188 200 190 170 172 170 160 161 164 126
155 153 153 152 156 165 168 175 181 161 152 151 156 158 157 159 156 158 158 152 153 156 162 164 178 200 198 190 184 179 176 168 167 181 171 161 155 153 156 160 154 134 123
158 154 148 151 163 172 173 173 158 151 149 155 158 155 155 155 154 157 161 163 168 169 173 179 190 194 185 193 189 178 171 167 164 161 150 143 127 118 127 125 114 139 182
156 155 160 168 173 169 165 156 151 150 150 155 156 154 155 158 158 159 170 175 187 186 185 194 188 183 201 212 188 174 178 177 173 147 115 100 108 127 255 281 266 240 194
152 153 161 166 168 165 165 161 157 156 152 154 160 159 159 159 159 156 141 142 175 182 186 184 179 194 199 185 181 182 180 172 160 141 153 183 196 207 220 234 251 242 238
Height
1542 1544 1546 1548 1550 1552 1554 1555 1556 1558 1559 1559 1560 1560 1561 1562 1562 1562 1562 1563 1562 1562 1562 1562 1562 1561 1561 1562 1562 1562 1563 1563 1563 1564 1564 1565 1565 1564 1564 1564 1563 1562 1561
1541 1543 1545 1547 1549 1551 1553 1555 1556 1558 1559 1560 1560 1561 1562 1562 1563 1563 1563 1563 1563 1563 1563 1563 1563 1563 1563 1563 1563 1564 1564 1564 1565 1565 1565 1566 1567 1566 1566 1565 1565 1564 1563
1538 1541 1543 1546 1548 1550 1552 1554 1556 1558 1559 1560 1560 1561 1562 1563 1563 1564 1564 1564 1564 1564 1564 1564 1564 1564 1564 1564 1564 1565 1565 1565 1566 1566 1567 1567 1567 1567 1568 1567 1566 1565 1564
1536 1539 1541 1544 1546 1549 1551 1554 1556 1557 1559 1560 1560 1561 1562 1562 1563 1564 1564 1565 1565 1565 1565 1565 1565 1566 1566 1566 1566 1566 1566 1566 1566 1567 1567 1568 1567 1568 1568 1569 1568 1567 1566
1534 1536 1539 1542 1545 1548 1550 1553 1555 1556 1558 1559 1560 1561 1562 1563 1564 1564 1565 1566 1566 1566 1566 1566 1567 1567 1567 1567 1567 1567 1567 1567 1567 1567 1567 1568 1568 1568 1568 1569 1569 1568 1567
1531 1534 1537 1540 1543 1546 1549 1551 1553 1555 1557 1558 1560 1561 1562 1563 1564 1565 1565 1566 1566 1567 1567 1567 1567 1568 1568 1568 1568 1568 1568 1568 1568 1568 1568 1568 1568 1568 1568 1568 1569 1569 1569
1528 1531 1534 1537 1540 1543 1547 1549 1552 1554 1556 1557 1559 1560 1562 1563 1564 1565 1565 1566 1567 1567 1568 1568 1568 1568 1569 1569 1569 1569 1569 1569 1569 1569 1569 1569 1569 1569 1569 1569 1569 1569 1569
1524 1528 1531 1534 1537 1541 1544 1547 1550 1552 1554 1556 1558 1559 1561 1562 1563 1565 1565 1566 1567 1567 1568 1569 1569 1569 1569 1569 1570 1570 1570 1570 1570 1570 1570 1570 1570 1570 1570 1570 1569 1569 1570
1521 1525 1528 1531 1535 1538 1542 1545 1548 1550 1553 1555 1556 1558 1560 1561 1563 1564 1565 1566 1567 1567 1568 1569 1569 1569 1570 1570 1570 1570 1570 1570 1570 1570 1570 1570 1570 1570 1570 1570 1570 1570 1569
1519 1522 1525 1529 1532 1536 1539 1543 1545 1548 1551 1553 1555 1557 1559 1560 1562 1563 1564 1566 1566 1567 1568 1569 1569 1570 1570 1570 1570 1570 1570 1570 1570 1570 1571 1571 1571 1571 1571 1570 1570 1570 1570
1516 1519 1522 1526 1529 1533 1537 1540 1543 1546 1549 1551 1553 1555 1557 1559 1561 1562 1564 1565 1566 1567 1568 1569 1569 1569 1570 1570 1570 1570 1570 1570 1571 1571 1571 1571 1571 1571 1571 1570 1570 1570 1570
1514 1517 1520 1523 1527 1530 1534 1537 1540 1543 1546 1549 1552 1554 1556 1558 1560 1561 1563 1564 1565 1566 1567 1568 1568 1569 1569 1570 1570 1570 1570 1570 1571 1571 1571 1571 1571 1571 1571 1571 1570 1570 1570
1512 1515 1517 1520 1524 1527 1531 1535 1538 1541 1544 1547 1549 1552 1554 1556 1558 1560 1561 1563 1564 1565 1566 1567 1568 1568 1569 1569 1569 1570 1570 1570 1570 1571 1571 1571 1571 1571 1571 1570 1570 1570 1569
1509 1512 1515 1518 1521 1525 1528 1532 1535 1539 1542 1545 1547 1550 1552 1554 1556 1558 1560 1561 1563 1564 1565 1566 1566 1567 1568 1568 1569 1569 1569 1569 1570 1570 1570 1571 1570 1570 1570 1570 1569 1569 1569
1507 1509 1512 1515 1518 1522 1525 1529 1533 1536 1539 1542 1545 1548 1550 1553 1555 1556 1558 1560 1561 1562 1563 1564 1565 1566 1567 1568 1568 1569 1569 1569 1569 1569 1570 1570 1570 1570 1569 1569 1569 1568 1568
1504 1506 1509 1512 1515 1519 1522 1526 1529 1533 1536 1539 1542 1545 1548 1550 1552 1554 1556 1558 1559 1561 1562 1563 1564 1565 1566 1567 1567 1568 1568 1568 1568 1569 1569 1569 1569 1569 1568 1568 1568 1568 1567
1501 1503 1506 1509 1512 1515 1519 1522 1526 1530 1533 1537 1540 1543 1546 1548 1550 1552 1554 1556 1558 1559 1560 1562 1563 1564 1565 1565 1566 1566 1567 1567 1567 1567 1568 1568 1568 1567 1567 1567 1566 1566 1565
1498 1500 1503 1507 1510 1513 1516 1520 1523 1527 1530 1534 1537 1540 1543 1545 1548 1550 1552 1554 1556 1557 1559 1560 1562 1563 1563 1564 1565 1565 1565 1565 1566 1566 1566 1566 1566 1566 1566 1565 1565 1564 1564
1496 1498 1500 1504 1507 1510 1514 1517 1521 1524 1528 1531 1534 1537 1540 1543 1545 1547 1549 1552 1553 1555 1557 1558 1560 1561 1562 1563 1563 1564 1564 1564 1564 1564 1565 1565 1564 1564 1564 1564 1563 1563 1562
1494 1496 1499 1502 1504 1508 1511 1514 1517 1521 1524 1528 1531 1535 1537 1540 1542 1545 1547 1549 1551 1553 1555 1557 1558 1559 1560 1561 1561 1562 1562 1562 1562 1563 1563 1563 1563 1563 1562 1562 1561 1560 1560
1492 1494 1497 1499 1502 1505 1509 1511 1515 1518 1521 1525 1529 1532 1535 1537 1540 1543 1545 1547 1549 1551 1553 1555 1556 1557 1558 1559 1559 1560 1560 1560 1561 1561 1561 1561 1561 1560 1560 1559 1559 1558 1557
1490 1492 1495 1497 1500 1503 1506 1509 1512 1516 1519 1523 1526 1529 1532 1535 1537 1539 1542 1544 1547 1549 1550 1552 1554 1555 1556 1556 1557 1558 1558 1558 1558 1558 1559 1559 1558 1558 1558 1557 1556 1556 1555
1489 1491 1493 1496 1499 1502 1504 1507 1510 1514 1517 1520 1523 1526 1529 1532 1534 1536 1539 1541 1543 1546 1547 1549 1550 1552 1553 1554 1554 1555 1555 1556 1556 1556 1556 1556 1556 1556 1555 1554 1553 1553 1552
1488 1490 1492 1495 1497 1500 1502 1505 1508 1511 1514 1517 1520 1523 1526 1529 1531 1534 1536 1538 1540 1542 1544 1546 1547 1549 1550 1551 1551 1552 1552 1553 1553 1553 1553 1553 1553 1553 1552 1551 1550 1549 1548
1486 1488 1491 1493 1495 1498 1501 1504 1506 1509 1512 1515 1518 1520 1523 1526 1528 1531 1533 1535 1537 1539 1541 1542 1544 1545 1546 1548 1549 1549 1549 1550 1550 1550 1550 1550 1550 1549 1548 1548 1547 1546 1545
1485 1487 1489 1491 1494 1496 1499 1502 1504 1507 1510 1512 1515 1517 1520 1523 1525 1527 1530 1532 1535 1537 1538 1540 1541 1542 1544 1545 1546 1546 1547 1547 1547 1547 1546 1546 1546 1545 1545 1544 1543 1542 1541